FORMOSAT 7-2 (44351 NORAD) Tracking and Keplerian Element Data

This shows tracking and keplerian element data for the satellite.

Feedback or suggestion? Click here.




ElementValue
Catalog44351
NameFORMOSAT 7-2
Epoch Orbit398
Epoch Day203.93089696
Epoch Year2019
RAAN30.8205
Inclination24.0014
Eccentricity0.0012982
Argument of Perigee137.2206
Mean Anonmoly222.9024
Mean Motion14.53387334
Decay Rate0.00017828
L11 44351U 19036N 19203.93089696 .00017828 00000-0 41448-2 0 9990
L22 44351 24.0014 30.8205 0012982 137.2206 222.9024 14.53387334 3983

Live tracking and technical data element details for FORMOSAT 7-2 (NORAD 44351). FORMOSAT 7-2 can be tracked NOW for your location showing map with azimuth and elevation plus other details from your city location.

Track the satellite on the map from your city or location and see movement details for azimuth, elevation, latitude, longitude, range, height, and movement on the map or in text.







IsCatalogInMostPopularTable: catalog: 44351, numindb: 15
Update: records affected: 1



GetName: 44351 FORMOSAT 7-2

Hit Count: updated at: Wed, 23 Oct 2019 00:46:53 GMT